CW7625 Weather Reports


Display with metric or nautical units.
time (UTC)temp
F
wind
direction
speed
MPH
gust
MPH
rain 1hr
in
rain 24hr
in
rain mn
in
humidity
%
barometer
mb
20260507081111 53 61 0.0 0.0 0.00 0.23 0.00 91 1015.0
20260507080111 54 61 0.0 0.0 0.00 0.23 0.00 91 1015.0
20260507075111 54 61 0.0 0.0 0.00 0.23 0.00 91 1015.0
20260507074041 54 61 0.0 0.0 0.00 0.23 0.00 91 1015.1
20260507073111 54 61 0.0 0.0 0.00 0.23 0.00 91 1015.1
20260507072111 54 61 0.0 1.0 0.00 0.23 0.00 91 1015.2
20260507071111 54 61 0.0 2.0 0.00 0.23 0.00 91 1015.1
20260507070111 55 63 0.0 0.0 0.00 0.23 0.00 91 1014.6
20260507065041 55 63 0.0 0.0 0.00 0.23 0.00 91 1014.8
20260507064111 55 63 0.0 0.0 0.00 0.23 0.00 91 1015.1
20260507063041 56 63 0.0 0.0 0.00 0.23 0.00 91 1015.3
20260507062111 55 63 0.0 0.0 0.00 0.23 0.00 91 1015.4
20260507061041 55 63 0.0 0.0 0.00 0.23 0.00 91 1015.5
20260507060111 55 63 0.0 0.0 0.00 0.23 0.00 91 1015.7
20260507055041 55 63 0.0 0.0 0.00 0.23 0.00 91 1015.7
20260507054111 55 63 0.0 0.0 0.00 0.23 0.00 91 1015.7
20260507053041 55 63 0.0 0.0 0.00 0.23 0.00 90 1015.6
20260507052111 55 63 0.0 0.0 0.00 0.23 0.00 91 1015.8
20260507051041 55 63 0.0 0.0 0.00 0.23 0.00 91 1015.6
20260507050111 55 63 0.0 1.0 0.00 0.23 0.00 91 1015.7
20260507045111 55 63 0.0 0.0 0.00 0.23 0.23 91 1015.7
20260507044111 55 63 0.0 0.0 0.00 0.23 0.23 90 1015.5
20260507043111 55 63 0.0 0.0 0.00 0.23 0.23 90 1015.7
20260507042111 55 63 0.0 0.0 0.00 0.23 0.23 90 1015.4
20260507041111 55 63 0.0 0.0 0.00 0.23 0.23 90 1015.5
20260507040111 55 63 0.0 0.0 0.00 0.23 0.23 90 1015.5
20260507035111 55 63 0.0 0.0 0.00 0.23 0.23 90 1015.5
20260507034111 55 63 0.0 0.0 0.00 0.23 0.23 90 1015.3
20260507033111 55 63 0.0 1.0 0.00 0.23 0.23 90 1015.2
20260507032111 55 63 0.0 0.0 0.00 0.23 0.23 90 1015.1
20260507030111 55 63 0.0 0.0 0.00 0.23 0.23 89 1014.8
20260507025111 56 63 0.0 0.0 0.00 0.23 0.23 90 1014.7
20260507024111 55 63 0.0 0.0 0.00 0.23 0.23 89 1014.4
20260507023112 55 63 0.0 2.0 0.00 0.23 0.23 89 1014.3
20260507021111 55 63 0.0 2.0 0.00 0.23 0.23 89 1013.9
20260507020112 55 63 1.0 2.0 0.00 0.23 0.23 89 1013.9
20260507015112 55 63 1.0 3.0 0.00 0.23 0.23 89 1013.7
20260507014111 55 57 2.0 3.0 0.00 0.23 0.23 89 1013.6
20260507013112 55 57 2.0 5.0 0.00 0.23 0.23 89 1013.4
20260507011111 56 57 0.0 3.0 0.00 0.23 0.23 89 1013.3
20260507010112 56 57 3.0 3.0 0.00 0.23 0.23 89 1013.1
20260507005111 56 57 3.0 4.0 0.00 0.23 0.23 89 1013.3
20260507004111 56 57 2.0 4.0 0.00 0.23 0.23 89 1013.2
20260507002112 56 44 3.0 6.0 0.00 0.23 0.23 89 1013.0
20260507001111 56 41 2.0 6.0 0.00 0.23 0.23 89 1013.0
20260507000111 56 74 3.0 7.0 0.00 0.23 0.23 89 1013.0
20260506235111 56 69 4.0 6.0 0.00 0.23 0.23 89 1012.7
20260506234112 56 48 4.0 7.0 0.00 0.23 0.23 89 1012.2
20260506233112 56 69 2.0 7.0 0.00 0.23 0.23 89 1012.0
20260506232112 56 22 4.0 7.0 0.00 0.23 0.23 89 1012.4
20260506231111 56 46 2.0 4.0 0.00 0.23 0.23 89 1012.6
20260506230112 56 69 2.0 5.0 0.00 0.23 0.23 89 1012.7
20260506225112 56 62 2.0 6.0 0.00 0.23 0.23 89 1012.6
20260506224042 56 57 2.0 7.0 0.00 0.23 0.23 88 1012.6
20260506223112 56 51 3.0 6.0 0.00 0.23 0.23 88 1012.3
20260506222112 56 24 5.0 9.0 0.00 0.23 0.23 88 1012.1
20260506221042 56 81 5.0 7.0 0.00 0.23 0.23 87 1012.2
20260506220112 56 87 1.0 7.0 0.00 0.23 0.23 88 1012.5
20260506215112 56 41 4.0 5.0 0.00 0.23 0.23 88 1012.6
20260506214112 56 28 2.0 6.0 0.00 0.23 0.23 89 1012.5
20260506213112 56 92 6.0 9.0 0.00 0.23 0.23 89 1012.2
20260506212042 56 56 2.0 11.0 0.00 0.23 0.23 89 1012.0
20260506211112 55 52 4.0 11.0 0.00 0.23 0.23 89 1011.7
20260506210120 55 15 8.0 12.0 0.00 0.23 0.23 89 1011.7
20260506205112 55 37 2.0 10.0 0.00 0.23 0.23 90 1011.3
20260506204042 55 51 9.0 9.0 0.00 0.23 0.23 89 1011.3
20260506203112 55 78 7.0 8.0 0.00 0.23 0.23 89 1012.0
20260506202112 55 32 5.0 9.0 0.00 0.23 0.23 89 1012.0
20260506201112 56 92 3.0 12.0 0.00 0.23 0.23 89 1012.1
20260506200112 56 68 3.0 11.0 0.00 0.23 0.23 89 1011.2
20260506195042 56 58 4.0 12.0 0.00 0.23 0.23 89 1011.4
20260506193112 56 360 14.0 15.0 0.00 0.23 0.23 89 1010.1
20260506192112 56 79 4.0 12.0 0.00 0.23 0.23 89 1011.7
20260506191112 57 109 7.0 12.0 0.00 0.23 0.23 90 1011.0
20260506190112 56 59 11.0 14.0 0.00 0.23 0.23 91 1010.8
20260506185112 56 74 4.0 9.0 0.00 0.23 0.23 91 1011.4
20260506184112 56 83 5.0 11.0 0.02 0.23 0.23 91 1011.1
20260506183112 56 55 5.0 10.0 0.04 0.23 0.23 91 1011.0
20260506182042 56 46 1.0 10.0 0.08 0.23 0.23 91 1012.0
20260506181112 56 85 5.0 11.0 0.14 0.23 0.23 91 1011.7
20260506180112 56 74 2.0 8.0 0.14 0.23 0.23 92 1011.6
20260506175112 56 74 7.0 12.0 0.14 0.23 0.23 91 1011.4
20260506174042 56 70 6.0 9.0 0.14 0.21 0.21 91 1012.5
20260506173112 56 65 1.0 10.0 0.13 0.19 0.19 91 1014.2
20260506170112 57 69 4.0 7.0 0.07 0.09 0.09 91 1013.1
20260506165042 57 69 5.0 8.0 0.07 0.09 0.09 91 1013.0
20260506164113 57 84 3.0 8.0 0.05 0.07 0.07 91 1012.5
20260506163113 58 77 3.0 8.0 0.05 0.06 0.06 91 1013.0
20260506162042 58 49 2.0 11.0 0.01 0.02 0.02 92 1012.2
20260506161113 58 88 4.0 12.0 0.01 0.02 0.02 91 1011.9
20260506160112 58 57 4.0 8.0 0.01 0.02 0.02 91 1012.4
20260506155112 58 53 4.0 8.0 0.01 0.02 0.02 91 1011.8
20260506154042 59 66 4.0 7.0 0.01 0.02 0.02 91 1012.3
20260506153112 58 61 3.0 5.0 0.01 0.01 0.01 91 1012.0
20260506151042 59 71 0.0 5.0 0.01 0.01 0.01 91 1011.4
20260506145113 58 63 3.0 9.0 0.01 0.01 0.01 91 1011.1
20260506144043 59 67 4.0 4.0 0.01 0.01 0.01 91 1011.2
20260506141042 58 290 1.0 4.0 0.00 0.00 0.00 91 1010.8
20260506135043 58 294 0.0 3.0 0.00 0.00 0.00 90 1010.8
20260506134043 58 294 1.0 2.0 0.00 0.00 0.00 90 1010.5
20260506133043 58 294 0.0 3.0 0.00 0.00 0.00 90 1010.5
20260506131113 58 291 0.0 3.0 0.00 0.00 0.00 89 1010.5
20260506130043 58 292 2.0 7.0 0.00 0.00 0.00 88 1010.3
20260506125043 59 286 1.0 4.0 0.00 0.00 0.00 87 1010.0
20260506124043 59 293 2.0 5.0 0.00 0.00 0.00 86 1009.9
20260506123043 59 291 0.0 5.0 0.00 0.00 0.00 86 1009.7
20260506122043 59 288 2.0 4.0 0.00 0.00 0.00 86 1009.7
20260506121043 59 294 1.0 4.0 0.00 0.00 0.00 86 1009.4
20260506120043 59 322 0.0 4.0 0.00 0.00 0.00 86 1009.0
20260506115043 59 232 2.0 3.0 0.00 0.00 0.00 86 1009.0
20260506114043 59 232 0.0 4.0 0.00 0.00 0.00 86 1008.6
20260506112043 59 299 0.0 5.0 0.00 0.00 0.00 85 1008.3
20260506111043 60 277 2.0 4.0 0.00 0.00 0.00 84 1008.2
20260506110113 60 277 0.0 4.0 0.00 0.00 0.00 84 1008.0
20260506105043 60 277 1.0 4.0 0.00 0.00 0.00 83 1007.9
20260506104043 60 259 1.0 7.0 0.00 0.00 0.00 84 1008.0
20260506103043 60 289 1.0 7.0 0.00 0.00 0.00 83 1007.5
20260506102043 60 222 3.0 4.0 0.00 0.00 0.00 83 1007.3
20260506101043 60 279 0.0 4.0 0.00 0.00 0.00 83 1007.3
20260506100113 60 262 0.0 3.0 0.00 0.00 0.00 83 1007.1
20260506095113 61 294 0.0 4.0 0.00 0.00 0.00 83 1007.0
20260506094113 61 288 0.0 5.0 0.00 0.00 0.00 83 1006.9
20260506093113 61 287 3.0 6.0 0.00 0.00 0.00 83 1006.8
20260506092043 61 215 1.0 3.0 0.00 0.00 0.00 83 1006.8
20260506091043 61 232 1.0 4.0 0.00 0.00 0.00 83 1006.9
20260506090043 61 231 4.0 4.0 0.00 0.00 0.00 83 1006.7
20260506085043 61 231 0.0 2.0 0.00 0.00 0.00 83 1006.6
20260506084043 61 231 0.0 3.0 0.00 0.00 0.00 83 1006.5
20260506083043 61 230 0.0 4.0 0.00 0.00 0.00 83 1006.2
20260506082043 62 284 1.0 3.0 0.00 0.00 0.00 83 1006.1